Weather Roundup
Issued by NWS Springfield, MO

Home | Current Version | Previous Version | Text Only | Print | Product List | Glossary On
Versions: 1 2 3 4 5 6 7 8 9 10 11 12 13 14 15 16 17 18 19 20 21 22 23 24 25 26 27 28 29 30 31 32 33 34 35 36 37 38 39 40 41 42 43 44 45 46 47 48 49 50
000
NZUS99 KSGF 020407
HRRSGF

HOURLY WEATHER
NATIONAL WEATHER SERVICE SPRINGFIELD MO
1100 PM CDT SUN MAY 01 2016

......SGF CWA......

CITY           SKY/WX    TMP DP  RH WIND       PRES   REMARKS
SPRINGFIELD    CLEAR     53  44  71 NW5       30.07R
JOPLIN         CLOUDY    55  48  77 NW8       30.10R
WEST PLAINS    CLEAR     55  44  66 NW5       30.04R
ROLLA          CLEAR     52  47  83 NW8       30.04R
OSAGE BEACH    PTCLDY    52  41  66 N6        30.08R

......SURROUNDING SGF CWA......

CITY           SKY/WX    TMP DP  RH WIND       PRES   REMARKS
CHANUTE        CLOUDY    53  44  71 N10       30.14R
PARSONS        CLOUDY    55  48  77 N13       30.14R
COFFEYVILLE    CLOUDY    56  47  71 NW10      30.13R
EMPORIA        CLOUDY    49  42  77 N9        30.16R
GROVE OK       LGT RAIN  55  50  82 NW7       30.11S
ROGERS AR      MOCLDY    53  47  79 CALM      30.10R
SILOAM SPRINGS CLOUDY    54  43  66 N7        30.10S
HARRISON AR    CLEAR     53  45  74 NW5       30.06R
NEAR YELLVILLE CLEAR    N/A N/A N/A NW5       30.02R

......KANSAS AND MISSOURI......

CITY           SKY/WX    TMP DP  RH WIND       PRES   REMARKS
KANSAS CTY INT CLOUDY    49  44  83 N7        30.13R
DOWNTOWN KC    CLOUDY    52  45  77 NW5       30.13R
COLUMBIA       CLOUDY    53  46  77 NW9       30.07R
SEDALIA        CLOUDY    53  47  79 N8        30.11R
ST JOSEPH      CLOUDY    49  44  83 N7        30.14R
ST LOUIS       PTCLDY    57  49  74 NW13      30.01S
SPIRIT OF STL  CLEAR     56  50  80 NW13      30.01R
KIRKSVILLE     CLOUDY    48  45  89 NW6       30.08S
WICHITA        LGT RAIN  50  42  74 N12       30.19R
TOPEKA         CLOUDY    49  43  80 NW6       30.17R
OLATHE         CLOUDY    49  44  83 N6        30.14R

......TENNESSEE......

CITY           SKY/WX    TMP DP  RH WIND       PRES   REMARKS
MEMPHIS        PTCLDY    72  66  81 CALM      29.96S
NASHVILLE      CLEAR     69  63  81 SW7       29.98R

......ARKANSAS.......

CITY           SKY/WX    TMP DP  RH WIND       PRES   REMARKS
FAYETTEVILLE   CLOUDY    51  48  89 CALM      30.09R
FT SMITH       PTCLDY    61  44  53 NW9       30.06R
LITTLE ROCK    CLEAR     67  54  63 NW7       29.98R

......OKLAHOMA.......

CITY           SKY/WX    TMP DP  RH WIND       PRES   REMARKS
TULSA          CLOUDY    55  50  83 NW10      30.10R
PONCA CITY     CLOUDY    52  45  77 N7        30.17R
MCALESTER      CLOUDY    61  49  64 N10       30.09R
OKLAHOMA CITY  CLOUDY    53  45  74 N14       30.16R

......IOWA............

CITY           SKY/WX    TMP DP  RH WIND       PRES   REMARKS
DES MOINES     CLOUDY    49  45  86 N6        30.12R
QUAD CITIES    CLOUDY    50  47  89 CALM      30.04R

......ILLINOIS........

CITY           SKY/WX    TMP DP  RH WIND       PRES   REMARKS
QUINCY         LGT RAIN  50  48  93 NW9       30.05R
CHICAGO        CLOUDY    47  45  93 NE13      30.00R




USA.gov is the U.S. government's official web portal to all federal, state and local government web resources and services.